RH
75 78 82 94 87 91 98 99 87 90 94 93 90 86 80 74 59 52 58 60 62 70 62 67 57 63 71 63 47 51 57 60 75 58 56 60 59 59 54 55 83 90 95 96 88 95 57 52 44 31 26 39 39 45
75 78 83 92 92 87 97 100 82 88 93 94 95 93 88 84 76 63 54 69 70 70 61 73 74 71 65 55 58 71 44 59 66 63 72 67 64 77 59 37 65 58 61 69 74 64 45 46 37 40 44 48 49 47
73 76 84 92 94 88 94 98 81 85 94 100 98 99 96 88 85 73 68 69 76 79 67 69 76 66 65 64 66 65 76 70 72 70 75 73 59 64 60 62 46 50 58 58 50 49 47 43 42 45 42 47 48 57
74 74 78 86 97 90 88 94 85 83 94 99 98 97 90 87 86 79 59 71 78 84 72 67 70 69 67 64 63 66 64 77 78 80 76 73 62 60 58 55 56 45 57 54 54 41 47 40 46 60 62 63 65 64
80 75 73 81 98 90 87 90 85 76 90 96 100 96 91 88 81 85 60 70 73 73 76 80 77 73 73 68 68 70 73 79 83 79 82 78 82 77 88 84 88 62 50 49 52 46 56 59 58 63 64 59 57 71
83 80 73 80 96 92 85 86 82 75 74 77 89 89 88 88 82 84 84 65 80 79 83 90 80 77 78 77 78 82 82 88 86 80 83 86 80 78 87 83 63 68 59 57 60 55 63 64 68 62 67 62 60 68
85 82 75 74 92 95 90 84 77 72 72 75 72 92 89 87 83 85 88 80 89 83 86 88 92 81 78 81 89 90 87 94 88 88 90 91 88 89 91 93 65 64 60 63 64 61 45 52 54 64 66 58 60 67
87 86 82 77 91 95 93 91 77 73 69 71 85 87 87 82 86 94 89 82 80 79 85 94 90 86 78 88 90 94 93 92 92 92 95 94 90 94 99 81 72 64 62 66 62 65 64 65 66 58 54 59 69 65
93 88 82 81 91 95 93 94 79 72 74 76 89 89 88 88 90 91 85 82 83 80 94 92 98 88 84 96 93 92 91 93 94 95 94 91 93 98 83 75 65 63 58 56 65 56 52 56 62 63 62 63 69 65
91 84 80 84 90 98 100 97 80 77 87 92 88 93 94 94 91 85 82 85 93 95 96 93 97 97 87 93 95 94 93 97 99 91 93 97 95 80 74 73 71 68 58 56 48 55 54 64 66 66 66 69 74 76
83 83 83 84 96 99 100 88 78 91 98 98 99 98 97 90 82 88 97 93 92 93 96 96 95 97 89 92 94 92 96 95 92 90 94 87 95 80 68 60 60 52 45 45 51 56 60 67 72 70 70 67 66 64
92 95 97 90 100 99 99 91 91 98 96 81 83 87 86 87 96 96 98 96 96 92 94 98 97 96 93 92 94 96 96 92 93 93 94 90 85 70 63 52 51 54 50 52 51 58 58 60 62 68 72 69 65 62
97 100 100 100 100 100 92 92 100 91 82 80 84 97 91 98 99 98 89 89 88 93 98 99 99 94 93 90 96 95 97 94 90 96 90 91 75 67 62 61 57 55 58 61 61 56 54 58 55 64 70 65 65 68
100 100 100 100 99 93 98 99 98 88 83 93 93 99 90 98 96 93 91 91 91 96 98 92 98 96 94 96 93 97 90 88 96 96 95 90 72 64 63 68 70 66 67 72 71 62 64 66 70 67 64 65 70 76
100 99 100 99 99 100 99 99 99 94 81 98 94 93 99 89 96 94 96 97 97 94 95 95 97 91 99 98 87 91 98 96 88 93 91 86 68 64 64 65 71 74 75 78 67 70 69 68 74 77 71 69 72 77
100 99 100 100 99 99 99 100 98 92 90 94 97 95 90 93 96 99 100 97 96 94 96 96 96 94 100 94 96 88 88 86 86 93 92 80 72 72 74 73 73 67 69 70 67 68 72 81 80 70 72 76 77 74
94 100 100 99 100 100 100 97 85 95 95 96 96 91 94 96 95 95 92 93 95 99 98 98 97 92 94 97 98 95 89 88 90 92 93 76 72 74 78 78 78 74 72 73 73 73 71 66 68 81 84 72 74 77
92 98 85 93 91 87 74 74 92 94 99 98 96 97 96 86 89 90 92 95 96 97 96 94 92 100 98 95 94 90 95 94 93 85 79 81 82 79 66 65 59 62 65 67 66 66 71 78 83 83 80 79 79 79
90 88 84 83 76 58 95 97 87 93 96 97 96 95 93 88 87 85 89 92 90 88 94 98 99 100 96 92 89 90 90 91 79 59 60 56 56 57 56 57 59 65 67 68 68 68 67 69 74 78 79 80 85 86
80 89 89 72 66 77 98 99 88 94 100 96 98 100 98 96 95 93 95 98 98 98 100 96 96 80 84 70 78 66 58 57 67 68 62 52 46 49 54 58 61 59 65 66 71 73 75 78 79 80 80 83 89 88
98 100 88 74 78 79 93 98 96 95 98 98 99 97 98 98 100 100 100 99 100 100 98 92 78 62 53 50 46 47 51 55 61 59 58 59 50 51 57 59 64 72 73 73 74 72 73 79 77 76 79 82 83 85
97 88 82 74 94 97 93 90 92 97 97 98 100 97 100 100 98 97 99 100 99 92 89 67 58 61 58 56 51 52 55 57 59 61 59 59 67 65 64 64 69 77 76 76 74 76 76 76 77 78 84 86 86 88
84 71 88 98 93 89 88 88 86 94 99 98 98 99 96 97 98 96 100 99 95 86 72 63 56 54 60 55 57 61 61 63 64 60 58 57 56 57 61 64 67 74 79 74 74 81 83 78 78 80 81 83 86 89
73 85 99 99 94 92 98 98 97 98 96 95 92 100 100 100 98 100 96 92 75 74 77 66 63 66 61 64 72 65 60 57 61 62 60 62 70 66 62 65 67 69 73 75 76 78 79 80 81 81 79 83 88 90
97 98 96 98 99 97 97 99 98 96 93 87 98 100 99 99 98 100 100 82 85 62 60 66 71 65 64 59 55 52 48 53 58 61 54 55 61 63 64 64 64 62 65 76 79 80 82 81 81 78 78 86 90 90
96 97 95 92 99 92 90 98 98 96 97 99 100 98 100 100 100 90 88 80 60 61 60 63 54 55 56 56 58 55 47 44 49 63 57 53 55 60 69 69 66 58 55 67 76 78 80 80 78 75 73 76 80 80
96 96 97 90 89 90 97 93 90 97 100 96 93 100 100 98 91 80 72 83 70 42 33 40 50 57 56 48 42 42 43 44 48 48 46 48 50 52 59 66 66 56 52 54 59 66 72 71 70 72 72 77 81 84
97 96 94 99 99 96 100 100 93 92 84 85 88 100 89 85 76 61 72 28 27 28 33 36 42 49 52 53 50 51 52 52 53 55 58 60 60 62 65 64 64 62 62 64 68 69 71 74 78 78 82 87 88 86
96 93 91 96 97 100 91 89 89 86 69 81 83 82 77 74 57 69 34 35 38 47 60 58 52 51 54 56 59 61 66 69 76 81 81 78 71 64 62 64 67 70 71 72 72 78 80 84 87 88 88 92 91 93
98 93 94 96 94 93 87 83 82 78 80 72 68 78 64 59 40 38 44 49 55 58 55 55 56 61 66 66 67 64 63 64 69 77 83 79 71 65 67 68 71 71 71 75 76 75 69 79 79 81 76 81 83 86
96 94 95 96 94 88 80 89 85 66 82 88 87 75 59 56 46 44 47 50 54 56 60 64 63 63 68 71 75 78 76 63 63 64 67 72 75 79 86 81 79 80 82 93 97 95 82 83 84 85 89 91 87 91
100 94 92 95 91 89 92 89 92 90 91 97 67 92 92 87 87 48 31 33 51 64 61 61 69 67 59 62 60 61 65 68 69 75 81 86 92 92 99 99 94 92 91 97 98 93 88 90 92 93 93 93 91 90
98 98 99 96 92 83 91 80 87 93 95 96 84 75 77 81 77 74 32 33 33 42 48 42 40 44 47 46 52 54 60 68 69 77 92 99 99 95 88 88 88 86 85 87 90 90 92 92 94 93 94 94 93 93
Wind_Speed
29 29 26 22 19 17 14 12 11 9 6 4 4 6 9 11 12 4 3 7 3 2 3 3 0 3 2 2 3 3 3 1 2 2 3 3 3 4 2 4 5 6 7 4 4 2 5 6 3 1 2 4 4 5
31 31 28 24 21 19 17 13 11 10 7 5 4 4 6 9 11 7 2 5 3 2 1 0 1 0 0 2 4 0 2 3 4 3 1 2 2 1 4 2 1 3 5 4 8 5 2 2 2 3 2 5 7 5
33 33 30 26 24 20 19 14 12 11 8 6 4 3 4 7 10 9 2 7 2 2 2 2 1 0 1 1 1 3 2 2 2 3 4 2 3 3 3 5 2 4 3 2 1 2 4 8 3 3 3 6 7 9
35 34 33 29 26 23 19 16 13 12 10 7 5 3 2 6 9 9 3 5 2 2 1 2 1 1 1 2 2 3 4 3 4 1 2 3 3 3 3 2 3 3 4 3 4 4 5 2 1 5 6 5 8 8
38 35 36 32 29 25 21 17 14 13 11 8 6 5 2 4 6 7 5 6 8 2 2 2 1 3 5 1 2 2 5 3 2 1 1 3 2 3 1 0 4 5 4 4 3 3 1 7 6 8 8 10 11 8
41 38 36 35 30 29 24 19 16 15 11 9 7 5 4 4 5 2 3 2 6 5 3 1 2 2 5 7 10 8 4 2 2 3 2 2 2 2 3 3 2 3 2 5 3 3 6 9 7 3 5 9 11 10
42 40 39 37 32 32 28 22 17 16 13 10 7 8 5 4 4 0 3 1 6 5 2 2 2 1 1 2 3 2 3 2 2 2 1 1 1 2 2 3 2 5 5 3 2 1 1 3 4 10 9 12 14 14
45 41 39 37 35 32 31 26 21 17 14 11 10 7 6 3 3 1 0 1 1 3 3 1 3 2 1 1 1 3 1 2 3 2 1 2 1 0 4 5 4 2 3 5 3 4 4 7 9 8 13 11 8 9
43 42 40 39 36 34 33 27 23 18 15 12 13 8 5 3 2 2 2 1 0 1 3 2 3 3 1 1 1 1 1 1 1 0 1 2 2 5 5 5 3 2 2 2 4 5 5 5 8 8 6 7 6 10
42 41 41 41 39 36 36 30 25 22 19 17 10 4 1 3 4 1 1 2 3 2 2 2 1 3 2 0 0 2 1 1 1 1 2 2 4 4 6 5 2 1 3 3 1 4 3 5 6 8 7 6 7 8
45 42 42 42 39 38 37 32 28 26 24 9 4 2 5 7 3 3 1 1 1 2 2 1 2 2 2 3 2 1 2 1 1 3 2 2 3 3 1 3 3 4 2 1 4 5 7 7 7 7 9 9 13 17
44 39 41 41 37 36 38 34 34 26 16 13 13 9 5 2 2 3 2 1 3 3 1 2 2 3 1 0 3 1 2 1 4 0 2 3 3 3 1 4 4 2 2 5 5 9 13 13 14 12 13 16 19 24
39 35 36 38 37 38 37 38 36 20 25 15 4 3 3 1 2 6 7 4 3 3 3 2 2 2 1 1 2 2 3 3 1 2 3 4 2 2 0 3 3 3 3 5 7 11 15 17 22 17 17 24 27 25
36 37 37 36 38 36 34 40 31 30 8 2 5 5 5 4 4 4 4 4 3 3 3 2 2 2 1 2 2 3 1 2 3 3 5 3 3 3 3 3 2 6 7 8 12 16 17 19 19 23 26 26 25 23
40 35 33 33 30 32 34 33 31 14 4 3 3 4 4 2 1 2 2 2 1 3 3 2 2 1 1 2 2 2 3 3 4 4 3 3 5 4 4 4 6 7 7 6 14 14 17 22 21 22 21 21 26 29
32 30 23 26 25 25 29 26 15 4 3 3 2 3 1 2 1 2 1 1 3 3 2 2 2 2 2 1 4 5 3 5 4 3 3 3 4 5 6 7 9 13 15 16 18 20 21 19 19 24 28 26 28 28
17 8 21 21 18 23 20 8 4 3 3 2 0 2 2 2 2 2 3 3 7 3 2 2 2 6 2 2 3 3 5 3 3 3 3 5 5 6 7 10 14 15 14 16 19 19 21 25 28 22 15 29 27 28
11 22 23 23 24 19 10 6 4 3 2 1 3 2 2 2 3 2 2 3 3 2 2 3 3 2 4 5 4 3 3 3 3 4 5 6 8 13 13 12 18 16 18 20 23 26 24 23 17 16 22 26 26 26
25 26 24 25 17 6 3 2 2 3 1 1 2 1 1 1 1 3 3 5 3 3 3 2 1 3 4 3 3 3 4 4 4 6 7 11 12 16 20 21 23 22 22 21 21 21 24 27 23 26 28 25 21 26
23 23 23 18 4 4 3 2 2 3 2 2 2 1 1 1 2 2 3 2 3 2 2 3 5 4 5 6 6 8 9 8 5 8 10 9 16 16 19 19 17 22 22 23 23 25 23 20 22 25 23 22 19 24
21 16 16 7 4 6 3 2 2 2 3 2 2 2 0 1 1 1 1 3 2 3 3 5 6 8 13 17 20 19 16 12 8 8 11 12 19 18 19 21 23 21 17 17 15 20 22 19 26 26 23 25 26 25
9 14 6 3 4 3 3 1 3 2 2 2 2 1 1 1 2 3 2 2 4 4 4 4 7 9 10 12 17 21 21 21 20 20 25 24 11 11 12 20 17 12 17 20 21 18 21 24 27 25 22 27 27 26
15 8 4 3 3 2 3 3 2 3 2 1 2 2 2 2 2 1 1 3 4 6 9 10 17 23 15 25 22 23 26 25 16 20 23 23 24 24 23 23 21 18 12 23 24 22 22 27 28 27 26 24 22 25
11 5 4 4 3 4 1 2 2 2 2 3 4 3 4 3 2 1 4 3 4 3 4 10 11 8 9 12 7 13 26 25 19 21 26 21 8 19 25 22 23 24 24 27 27 23 25 26 28 27 25 21 20 21
6 6 5 5 2 4 5 4 4 4 4 5 4 4 3 2 3 4 4 4 3 4 7 6 6 8 10 11 9 21 33 25 14 10 29 26 22 23 21 23 25 29 28 26 25 23 26 25 26 25 24 18 19 23
7 6 10 8 3 7 6 7 8 7 4 6 7 1 1 3 2 6 4 4 4 5 5 7 8 9 9 13 12 11 25 30 22 13 30 31 24 18 12 13 13 23 29 29 25 23 24 26 28 27 24 21 21 25
7 5 4 1 4 4 3 2 2 4 6 7 4 5 4 4 7 5 4 3 4 14 24 25 20 13 11 19 27 32 33 32 29 31 36 34 34 33 30 21 17 35 34 33 29 28 26 27 28 27 24 23 20 23
2 3 8 7 2 1 5 4 6 7 5 4 5 5 8 10 7 5 5 14 22 29 29 33 31 31 28 30 32 32 34 33 34 34 31 34 38 39 34 34 38 43 39 37 32 31 31 30 29 28 26 24 22 25
3 3 4 4 2 2 5 6 6 4 4 6 7 5 6 5 4 3 18 28 28 22 18 20 31 25 27 28 29 30 28 24 11 16 20 16 15 24 29 30 32 32 32 34 32 28 30 32 32 28 28 26 26 26
4 3 3 4 6 7 5 7 5 4 3 4 3 3 5 6 23 31 28 26 21 18 26 28 26 20 17 17 18 26 26 27 25 18 13 15 18 32 28 27 27 30 30 28 29 29 31 28 28 24 27 26 25 24
4 2 4 3 4 6 7 2 2 2 1 3 3 5 12 10 20 35 29 34 30 28 25 19 21 23 20 19 12 10 12 22 21 27 33 35 36 34 33 33 30 27 25 25 27 28 27 23 23 24 22 22 24 19
3 6 5 6 5 3 1 4 3 4 3 2 7 1 3 2 5 7 19 23 19 12 22 23 15 19 30 29 28 27 28 31 34 31 29 29 30 31 31 32 30 27 24 24 28 29 26 24 22 22 20 23 24 24
2 2 2 2 3 4 2 3 2 4 2 3 4 6 6 6 7 4 10 13 21 24 25 31 34 32 31 29 29 25 23 27 31 29 29 28 28 28 27 26 27 27 27 28 28 26 23 23 24 25 25 25 24 24
Wind_Direction
230 226 231 232 238 243 245 250 254 256 262 283 327 356 6 14 20 17 62 23 33 136 273 185 51 129 94 119 151 192 80 354 61 135 162 204 166 216 183 186 181 172 155 192 161 208 284 179 104 242 228 312 272 273
231 228 228 229 228 238 243 241 252 244 247 253 276 323 354 2 12 17 349 348 333 142 230 271 73 95 27 147 137 181 176 161 177 100 196 108 190 136 173 244 10 240 193 179 190 212 281 221 238 113 187 264 286 292
229 226 226 226 224 227 238 241 244 240 238 239 255 282 331 354 360 11 36 2 14 74 0 66 39 90 143 268 238 130 281 170 158 166 152 162 237 137 187 248 241 236 161 221 11 174 217 256 242 236 273 275 282 281
224 226 228 226 224 221 229 237 235 232 232 226 227 252 321 333 352 3 50 35 61 90 108 284 61 89 6 335 204 201 141 98 92 65 127 151 182 165 219 227 211 216 134 176 266 295 309 117 18 322 312 284 290 290
224 223 229 228 223 214 218 226 225 222 220 213 206 230 253 301 339 350 62 74 48 112 206 260 332 9 1 1 160 144 147 111 108 79 89 230 145 128 162 100 243 179 186 159 236 224 195 275 308 320 335 330 325 318
223 222 224 226 222 214 212 220 217 214 212 205 185 185 241 275 309 332 27 44 29 23 87 358 304 17 54 87 96 90 88 83 102 145 222 289 283 136 168 226 268 148 154 177 217 177 231 265 273 250 308 308 310 309
220 220 221 223 222 217 212 212 210 208 206 207 176 170 196 253 279 198 179 210 324 339 78 335 337 327 47 54 23 53 72 110 118 143 191 172 270 190 225 229 182 148 194 241 231 261 275 339 314 313 294 290 301 294
217 218 219 219 218 216 211 208 204 199 201 198 174 163 173 217 264 220 70 313 250 109 62 120 269 20 133 81 67 347 48 31 27 148 92 185 351 127 254 236 221 159 56 122 69 5 243 289 310 307 314 311 325 333
215 217 215 214 214 216 210 205 199 190 186 171 163 157 147 150 165 153 106 2 90 148 164 176 186 227 33 81 95 56 63 85 353 120 253 126 208 223 233 200 173 134 131 143 311 309 303 296 298 309 311 317 320 322
210 211 209 211 214 216 206 196 188 177 164 155 143 155 150 133 134 127 41 43 27 343 35 212 93 209 103 83 93 105 9 145 143 222 111 220 260 255 245 231 231 166 158 154 27 345 307 297 307 309 301 287 266 279
207 209 210 210 213 207 194 187 175 162 153 161 142 117 128 136 116 50 17 94 42 269 185 186 180 193 228 131 162 207 174 175 217 244 188 228 257 248 83 117 128 118 130 171 224 258 253 251 277 288 296 275 285 294
206 210 210 210 202 204 194 179 169 166 167 162 134 119 126 97 81 91 225 253 208 228 206 171 188 197 245 22 103 200 144 153 228 163 222 248 248 245 188 111 105 74 336 306 306 292 294 288 287 283 290 294 303 308
203 201 200 195 191 181 172 168 172 155 132 115 88 100 133 270 162 188 190 203 206 179 180 157 184 174 93 85 76 111 168 212 85 202 240 236 296 330 139 63 32 345 306 283 295 303 306 302 311 301 290 299 305 301
167 165 165 165 167 164 166 165 160 147 130 120 157 161 192 178 215 193 182 173 204 123 144 134 113 166 179 111 140 117 130 147 217 236 235 237 193 194 214 224 219 261 281 273 278 294 297 301 297 304 304 307 302 293
124 129 136 144 151 151 158 160 156 144 137 132 136 187 194 205 104 143 130 96 150 125 124 111 59 127 137 119 164 109 172 235 231 234 226 192 192 220 253 248 250 261 272 265 277 283 286 289 289 291 296 300 300 298
115 110 121 136 147 154 148 148 125 96 55 103 105 114 138 97 95 126 145 186 165 132 100 68 112 68 248 166 176 197 190 222 243 217 221 188 222 245 256 252 255 266 272 275 279 279 280 277 280 296 303 300 294 293
100 102 131 134 130 126 126 98 105 57 107 85 148 67 119 100 144 168 158 166 151 139 176 129 140 216 132 195 233 209 212 222 223 239 224 220 248 266 263 266 261 262 265 268 273 275 278 292 296 294 292 297 294 290
109 137 140 143 136 123 90 48 75 94 139 165 148 182 165 131 140 135 162 143 132 166 128 202 118 139 209 189 237 251 266 257 232 238 247 240 239 248 258 269 290 286 282 284 284 286 284 282 279 277 281 288 292 290
147 151 148 147 138 99 91 60 56 111 159 145 104 117 135 143 237 89 112 132 104 102 96 58 66 211 232 215 217 246 246 218 251 279 276 283 273 272 277 279 283 283 281 281 282 282 284 282 281 285 284 287 283 286
147 148 149 153 154 101 93 94 87 99 147 172 89 116 106 85 357 52 109 117 111 99 112 209 222 215 211 240 225 257 266 267 264 279 283 283 277 267 268 269 269 274 275 279 281 280 282 288 283 277 280 280 277 282
128 136 150 154 48 52 98 135 107 139 120 118 124 117 85 43 8 59 175 140 114 195 227 226 235 250 253 258 265 271 272 268 263 260 274 284 286 278 273 274 271 267 269 273 271 276 281 269 273 278 281 282 281 279
124 137 105 72 65 25 69 115 125 124 82 141 124 124 146 201 204 212 140 120 222 222 205 220 238 242 256 263 263 263 269 274 269 265 270 273 276 275 267 266 267 258 261 260 266 266 271 275 278 282 281 282 287 283
133 126 84 88 84 81 260 151 124 127 142 183 111 157 208 209 222 74 221 218 240 230 223 229 243 252 251 264 276 278 272 268 269 269 271 271 269 272 271 266 262 261 263 269 268 263 262 271 277 281 282 281 280 283
137 126 139 174 120 163 150 171 137 117 118 155 174 219 228 210 142 149 239 240 234 205 203 237 241 263 275 265 256 262 268 269 261 264 265 265 268 266 265 264 259 255 253 259 267 266 265 265 272 278 276 272 275 277
149 173 167 190 172 131 177 175 175 173 192 176 177 245 238 126 160 228 226 261 232 242 246 236 232 239 247 257 265 264 265 260 255 256 267 263 253 259 264 260 258 258 258 253 256 255 260 264 264 265 269 261 263 274
187 183 180 180 192 165 180 167 187 180 152 176 222 253 76 119 134 239 229 228 222 226 228 229 240 250 254 245 253 263 268 272 260 246 260 265 261 254 257 260 263 267 261 252 250 252 255 259 263 268 274 275 273 280
185 170 176 98 146 116 104 54 80 131 168 192 195 160 146 186 234 242 243 219 212 243 254 251 243 241 249 263 269 269 272 272 262 264 272 274 269 262 252 252 261 268 276 271 264 252 251 260 267 273 279 282 274 273
160 184 175 171 127 143 139 166 168 194 201 181 121 177 187 200 227 230 215 269 267 270 269 270 264 253 258 264 270 275 275 273 274 275 275 271 268 266 265 263 263 266 269 270 268 265 264 264 266 270 273 272 275 277
166 172 118 125 110 187 202 189 205 218 188 160 175 211 226 224 245 219 272 272 277 272 257 267 275 275 272 271 270 268 266 264 260 264 265 268 279 277 269 268 266 267 265 265 267 262 264 263 262 264 267 269 274 277
183 181 105 141 163 205 223 190 223 221 173 190 203 312 287 279 270 273 270 271 268 264 266 269 272 271 269 273 276 277 269 263 252 243 257 266 264 274 279 276 270 270 270 264 263 265 272 268 269 268 271 272 274 279
126 120 119 151 216 226 230 192 303 258 315 225 214 212 253 272 287 281 264 258 259 261 263 267 265 259 255 259 256 268 282 283 277 272 265 262 268 272 272 272 272 269 267 266 263 262 261 259 259 263 266 266 274 277
149 185 173 187 249 262 11 168 194 198 237 194 253 150 324 22 258 279 261 258 239 241 249 250 250 256 256 255 264 270 272 281 290 289 289 286 280 277 271 267 267 268 263 257 258 256 256 256 253 256 259 267 278 285
76 47 29 324 314 305 288 124 25 309 315 264 252 221 207 195 243 259 296 265 243 242 245 254 262 267 265 272 276 279 284 288 290 294 300 298 294 289 285 274 265 259 256 256 253 253 252 253 252 258 263 268 275 283